| time (UTC) | temp F | wind direction | speed knots | gust knots | rain 1hr in | rain 24hr in | rain mn in | humidity % | barometer mb |
| 20260502122504 | 67 | 244 | 3.5 | 7.0 | 0.00 | 0.02 | 0.02 | 68 | 1017.3 |
| 20260502122005 | 67 | 272 | 5.2 | 8.7 | 0.00 | 0.02 | 0.02 | 69 | 1017.3 |
| 20260502115005 | 66 | 264 | 5.2 | 10.4 | 0.00 | 0.02 | 0.02 | 71 | 1017.6 |
| 20260502114005 | 66 | 250 | 4.3 | 7.8 | 0.00 | 0.02 | 0.02 | 73 | 1017.7 |
| 20260502113505 | 66 | 230 | 6.1 | 11.3 | 0.00 | 0.02 | 0.02 | 73 | 1017.8 |
| 20260502113005 | 66 | 184 | 4.3 | 10.4 | 0.00 | 0.02 | 0.02 | 74 | 1017.8 |
| 20260502110004 | 65 | 231 | 3.5 | 10.4 | 0.00 | 0.02 | 0.02 | 77 | 1017.9 |
| 20260502105505 | 65 | 249 | 5.2 | 10.4 | 0.00 | 0.02 | 0.02 | 76 | 1017.9 |
| 20260502105005 | 65 | 252 | 4.3 | 10.4 | 0.00 | 0.02 | 0.02 | 77 | 1017.9 |
| 20260502104505 | 65 | 261 | 5.2 | 10.4 | 0.00 | 0.02 | 0.02 | 78 | 1017.9 |
| 20260502104005 | 64 | 259 | 3.5 | 8.7 | 0.00 | 0.02 | 0.02 | 79 | 1017.9 |
| 20260502102505 | 65 | 234 | 4.3 | 10.4 | 0.00 | 0.02 | 0.02 | 78 | 1018.0 |
| 20260502102004 | 65 | 245 | 3.5 | 11.3 | 0.00 | 0.02 | 0.02 | 78 | 1017.9 |
| 20260502071008 | 57 | 241 | 0.0 | 0.0 | 0.02 | 0.02 | 0.02 | 85 | 1017.9 |
| 20260502070008 | 57 | 241 | 0.0 | 0.0 | 0.01 | 0.01 | 0.01 | 83 | 1017.9 |
| 20260502065507 | 58 | 241 | 0.0 | 0.0 | 0.01 | 0.01 | 0.01 | 83 | 1017.9 |
| 20260502065007 | 58 | 241 | 0.0 | 0.0 | 0.01 | 0.01 | 0.01 | 82 | 1017.9 |
| 20260502064008 | 58 | 241 | 0.9 | 1.7 | 0.00 | 0.00 | 0.00 | 81 | 1018.2 |
| 20260502063507 | 58 | 241 | 0.0 | 0.9 | 0.00 | 0.00 | 0.00 | 80 | 1018.1 |
| 20260502063007 | 58 | 241 | 0.0 | 1.7 | 0.00 | 0.00 | 0.00 | 79 | 1018.1 |
| 20260502062507 | 58 | 241 | 0.0 | 2.6 | 0.00 | 0.00 | 0.00 | 78 | 1018.2 |
| 20260502054507 | 58 | 241 | 0.9 | 2.6 | 0.00 | 0.00 | 0.00 | 76 | 1018.1 |
| 20260502054007 | 58 | 241 | 0.0 | 0.9 | 0.00 | 0.00 | 0.00 | 75 | 1018.1 |
| 20260502053507 | 58 | 241 | 0.0 | 0.9 | 0.00 | 0.00 | 0.00 | 76 | 1018.0 |
| 20260502053007 | 58 | 241 | 0.0 | 0.9 | 0.00 | 0.00 | 0.00 | 76 | 1018.0 |
| 20260502052507 | 58 | 241 | 0.0 | 1.7 | 0.00 | 0.00 | 0.00 | 75 | 1017.9 |
| 20260502052007 | 58 | 241 | 0.9 | 2.6 | 0.00 | 0.00 | 0.00 | 75 | 1018.0 |
| 20260502045507 | 57 | 242 | 1.7 | 2.6 | 0.00 | 0.00 | 0.00 | 74 | 1017.9 |
| 20260502045007 | 56 | 242 | 1.7 | 4.3 | 0.00 | 0.00 | 0.00 | 73 | 1017.9 |
| 20260502044507 | 56 | 243 | 0.9 | 5.2 | 0.00 | 0.00 | 0.00 | 72 | 1017.9 |
| 20260502044007 | 55 | 24 | 1.7 | 2.6 | 0.00 | 0.00 | 0.00 | 70 | 1018.0 |
| 20260502043507 | 54 | 25 | 0.0 | 2.6 | 0.00 | 0.00 | 0.00 | 69 | 1018.0 |
| 20260502042507 | 53 | 25 | 0.0 | 0.0 | 0.00 | 0.00 | 0.00 | 70 | 1018.0 |
| 20260502042007 | 53 | 25 | 0.0 | 0.0 | 0.00 | 0.00 | 0.00 | 70 | 1017.9 |
| 20260502033007 | 53 | 25 | 0.0 | 0.0 | 0.00 | 0.00 | 0.00 | 69 | 1018.0 |
| 20260502032507 | 53 | 25 | 0.0 | 0.0 | 0.00 | 0.00 | 0.00 | 69 | 1018.1 |
| 20260502032006 | 53 | 25 | 0.0 | 0.9 | 0.00 | 0.00 | 0.00 | 69 | 1018.3 |
| 20260502031507 | 53 | 25 | 0.9 | 1.7 | 0.00 | 0.00 | 0.00 | 69 | 1018.2 |
| 20260502031007 | 53 | 25 | 0.0 | 0.9 | 0.00 | 0.00 | 0.00 | 69 | 1018.4 |
| 20260502023506 | 54 | 25 | 0.0 | 0.0 | 0.00 | 0.00 | 0.00 | 68 | 1018.3 |
| 20260502023007 | 54 | 25 | 0.0 | 0.0 | 0.00 | 0.00 | 0.00 | 66 | 1018.4 |
| 20260502022507 | 55 | 25 | 0.0 | 0.0 | 0.00 | 0.00 | 0.00 | 65 | 1018.4 |
| 20260502022007 | 55 | 25 | 0.0 | 0.0 | 0.00 | 0.00 | 0.00 | 65 | 1018.4 |
| 20260502021507 | 55 | 25 | 0.0 | 0.0 | 0.00 | 0.00 | 0.00 | 65 | 1018.4 |
| 20260502021007 | 55 | 25 | 0.0 | 0.0 | 0.00 | 0.00 | 0.00 | 65 | 1018.4 |
| 20260502020007 | 55 | 25 | 0.0 | 0.0 | 0.00 | 0.00 | 0.00 | 64 | 1018.4 |
| 20260502015507 | 55 | 25 | 0.0 | 0.0 | 0.00 | 0.00 | 0.00 | 64 | 1018.4 |
| 20260502014006 | 56 | 25 | 0.0 | 0.0 | 0.00 | 0.00 | 0.00 | 62 | 1018.5 |
| 20260502013506 | 56 | 25 | 0.0 | 0.0 | 0.00 | 0.00 | 0.00 | 62 | 1018.5 |
| 20260502013007 | 56 | 25 | 0.0 | 0.0 | 0.00 | 0.00 | 0.00 | 61 | 1018.5 |
| 20260502012506 | 56 | 25 | 0.0 | 0.0 | 0.00 | 0.00 | 0.00 | 61 | 1018.6 |
| 20260502012007 | 56 | 25 | 0.0 | 0.0 | 0.00 | 0.00 | 0.00 | 61 | 1018.8 |
| 20260502010006 | 57 | 25 | 0.0 | 0.0 | 0.00 | 0.00 | 0.00 | 60 | 1018.9 |
| 20260502005506 | 57 | 25 | 0.0 | 0.0 | 0.00 | 0.00 | 0.00 | 60 | 1018.9 |
| 20260502005006 | 57 | 25 | 0.0 | 0.0 | 0.00 | 0.00 | 0.00 | 59 | 1018.9 |
| 20260502003506 | 57 | 25 | 0.9 | 2.6 | 0.00 | 0.00 | 0.00 | 58 | 1018.9 |
| 20260502003006 | 58 | 25 | 0.9 | 2.6 | 0.00 | 0.00 | 0.00 | 58 | 1019.0 |
| 20260502000006 | 57 | 25 | 0.9 | 2.6 | 0.00 | 0.00 | 0.00 | 59 | 1019.3 |
| 20260501234506 | 58 | 25 | 0.0 | 0.0 | 0.00 | 0.00 | 0.00 | 60 | 1019.4 |
| 20260501234006 | 58 | 25 | 0.0 | 0.0 | 0.00 | 0.00 | 0.00 | 60 | 1019.4 |
| 20260501233506 | 58 | 25 | 0.0 | 0.0 | 0.00 | 0.00 | 0.00 | 60 | 1019.4 |
| 20260501233006 | 58 | 25 | 0.0 | 0.9 | 0.00 | 0.00 | 0.00 | 60 | 1019.4 |
| 20260501231506 | 58 | 25 | 0.9 | 19.1 | 0.00 | 0.00 | 0.00 | 61 | 1019.5 |
| 20260501231006 | 58 | 25 | 0.0 | 1.7 | 0.00 | 0.00 | 0.00 | 61 | 1019.6 |
| 20260501230006 | 58 | 25 | 0.0 | 0.0 | 0.00 | 0.00 | 0.00 | 62 | 1019.7 |
| 20260501225506 | 58 | 25 | 0.0 | 0.9 | 0.00 | 0.00 | 0.00 | 62 | 1019.7 |
| 20260501224006 | 58 | 25 | 0.0 | 0.0 | 0.00 | 0.00 | 0.00 | 63 | 1019.9 |
| 20260501223506 | 58 | 25 | 0.0 | 0.0 | 0.00 | 0.00 | 0.00 | 64 | 1019.9 |
| 20260501223006 | 58 | 25 | 0.0 | 0.0 | 0.00 | 0.00 | 0.00 | 64 | 1019.9 |
| 20260501222506 | 58 | 25 | 0.0 | 0.0 | 0.00 | 0.00 | 0.00 | 64 | 1019.9 |
| 20260501220006 | 58 | 25 | 0.0 | 0.0 | 0.00 | 0.00 | 0.00 | 66 | 1019.9 |
| 20260501215507 | 58 | 25 | 0.0 | 0.0 | 0.00 | 0.00 | 0.00 | 65 | 1019.9 |
| 20260501215006 | 58 | 25 | 0.0 | 0.0 | 0.00 | 0.00 | 0.00 | 64 | 1019.9 |
| 20260501214506 | 59 | 25 | 0.0 | 1.7 | 0.00 | 0.00 | 0.00 | 63 | 1019.9 |
| 20260501214006 | 59 | 25 | 0.0 | 1.7 | 0.00 | 0.00 | 0.00 | 63 | 1019.9 |
| 20260501213506 | 59 | 25 | 0.0 | 0.0 | 0.00 | 0.00 | 0.00 | 62 | 1019.9 |
| 20260501213006 | 60 | 25 | 0.0 | 0.0 | 0.00 | 0.00 | 0.00 | 61 | 1019.9 |
| 20260501194006 | 68 | 25 | 0.0 | 0.0 | 0.00 | 0.00 | 0.00 | 42 | 1020.3 |
| 20260501193505 | 68 | 25 | 0.0 | 0.0 | 0.00 | 0.00 | 0.00 | 41 | 1020.3 |
| 20260501193006 | 69 | 25 | 0.0 | 0.0 | 0.00 | 0.00 | 0.00 | 39 | 1020.2 |
| 20260501192006 | 70 | 25 | 0.0 | 0.0 | 0.00 | 0.00 | 0.00 | 37 | 1020.2 |
| 20260501191505 | 71 | 25 | 0.0 | 0.0 | 0.00 | 0.00 | 0.00 | 36 | 1020.2 |
| 20260501191005 | 71 | 25 | 0.0 | 0.0 | 0.00 | 0.00 | 0.00 | 35 | 1020.2 |
| 20260501185505 | 72 | 25 | 1.7 | 2.6 | 0.00 | 0.00 | 0.00 | 31 | 1020.1 |
| 20260501183505 | 73 | 109 | 0.0 | 0.9 | 0.00 | 0.00 | 0.00 | 32 | 1020.2 |
| 20260501183005 | 73 | 109 | 0.0 | 1.7 | 0.00 | 0.00 | 0.00 | 31 | 1020.1 |
| 20260501182506 | 73 | 109 | 1.7 | 2.6 | 0.00 | 0.00 | 0.00 | 30 | 1020.0 |
| 20260501182005 | 73 | 109 | 2.6 | 4.3 | 0.00 | 0.00 | 0.00 | 30 | 1020.0 |
| 20260501181506 | 74 | 109 | 0.0 | 2.6 | 0.00 | 0.00 | 0.00 | 30 | 1020.0 |
| 20260501181005 | 74 | 109 | 1.7 | 6.1 | 0.00 | 0.00 | 0.00 | 29 | 1019.9 |
| 20260501175005 | 74 | 124 | 2.6 | 6.1 | 0.00 | 0.00 | 0.00 | 28 | 1020.0 |
| 20260501174505 | 74 | 150 | 4.3 | 8.7 | 0.00 | 0.00 | 0.00 | 27 | 1020.0 |
| 20260501174005 | 74 | 132 | 2.6 | 6.1 | 0.00 | 0.00 | 0.00 | 27 | 1020.0 |
| 20260501173505 | 75 | 112 | 4.3 | 7.0 | 0.00 | 0.00 | 0.00 | 27 | 1020.0 |
| 20260501173005 | 75 | 102 | 1.7 | 6.1 | 0.00 | 0.00 | 0.00 | 27 | 1020.0 |
| 20260501172505 | 74 | 98 | 3.5 | 6.1 | 0.00 | 0.00 | 0.00 | 27 | 1020.1 |
| 20260501172005 | 74 | 99 | 4.3 | 7.8 | 0.00 | 0.00 | 0.00 | 26 | 1020.1 |
| 20260501171504 | 75 | 139 | 4.3 | 7.8 | 0.00 | 0.00 | 0.00 | 26 | 1020.1 |
| 20260501171005 | 75 | 100 | 4.3 | 8.7 | 0.00 | 0.00 | 0.00 | 26 | 1020.1 |
| 20260501170005 | 75 | 134 | 4.3 | 7.8 | 0.00 | 0.00 | 0.00 | 26 | 1020.3 |
| 20260501165505 | 75 | 151 | 4.3 | 7.0 | 0.00 | 0.00 | 0.00 | 26 | 1020.3 |
| 20260501165005 | 75 | 102 | 5.2 | 10.4 | 0.00 | 0.00 | 0.00 | 25 | 1020.3 |
| 20260501164505 | 75 | 112 | 4.3 | 7.8 | 0.00 | 0.00 | 0.00 | 25 | 1020.3 |
| 20260501163005 | 75 | 121 | 3.5 | 11.3 | 0.00 | 0.00 | 0.00 | 25 | 1020.4 |
| 20260501162505 | 75 | 97 | 4.3 | 10.4 | 0.00 | 0.00 | 0.00 | 25 | 1020.4 |
| 20260501162005 | 75 | 117 | 6.1 | 10.4 | 0.00 | 0.00 | 0.00 | 24 | 1020.4 |
| 20260501155005 | 75 | 115 | 5.2 | 10.4 | 0.00 | 0.00 | 0.00 | 24 | 1020.6 |
| 20260501154504 | 75 | 161 | 3.5 | 7.0 | 0.00 | 0.00 | 0.00 | 23 | 1020.7 |
| 20260501154005 | 75 | 175 | 6.1 | 10.4 | 0.00 | 0.00 | 0.00 | 23 | 1020.8 |
| 20260501153505 | 75 | 218 | 2.6 | 15.6 | 0.00 | 0.00 | 0.00 | 24 | 1020.8 |
| 20260501152005 | 74 | 135 | 5.2 | 13.0 | 0.00 | 0.00 | 0.00 | 25 | 1020.9 |